GFSSW_sfc_thetae_090.txt.gz
Theta_e
310 309 310 310 310 309 309 309 308 308 309 309 309 310 310 311 311 307 301 306 309 318 313 316 311 310 310 309 309 308 298 296 297 297 299 304 302 307 309 307 308 310 311 314 322
309 309 309 309 309 309 309 308 308 308 308 309 309 309 310 310 306 301 312 317 314 316 306 309 307 309 305 305 306 303 299 299 304 303 301 304 303 304 304 304 305 308 312 313 317
309 309 309 309 309 309 308 308 307 308 308 308 309 310 310 310 300 298 316 320 316 316 313 309 308 308 304 306 305 303 298 303 302 303 305 303 303 305 303 301 305 305 308 311 316
309 309 309 309 309 308 308 308 307 307 307 308 309 310 310 306 290 307 311 314 317 318 311 307 305 302 300 299 304 299 302 303 304 304 303 301 304 303 304 304 308 309 310 311 311
308 308 308 308 308 308 307 307 306 306 307 309 310 309 306 296 296 303 308 311 311 313 308 305 302 301 297 298 300 299 300 302 303 304 303 304 302 303 304 308 310 310 310 311 312
306 306 307 307 307 307 306 307 307 306 308 309 311 308 303 292 302 305 305 304 304 310 307 307 304 304 300 299 297 301 300 301 302 302 303 301 302 304 305 308 308 309 310 311 312
306 305 306 306 306 306 306 306 306 307 308 311 311 308 301 297 306 307 305 303 304 304 305 307 309 305 303 300 303 301 297 300 301 302 301 304 300 301 307 308 307 308 310 311 312
305 305 305 305 305 305 306 306 307 307 309 310 311 307 297 307 310 308 310 308 307 305 303 304 305 304 303 302 299 295 296 292 298 300 301 302 294 302 306 306 305 307 309 310 311
305 305 305 305 305 306 307 307 306 307 310 310 307 304 296 308 305 310 310 306 306 306 304 303 303 300 299 294 292 294 288 291 293 300 300 300 296 301 306 305 305 307 308 310 311
304 304 305 305 305 306 305 304 306 309 306 308 307 298 301 297 300 307 306 307 303 302 299 297 297 294 293 291 284 287 287 289 290 296 298 296 296 301 303 303 303 304 307 308 309
304 304 304 304 304 305 303 304 296 297 295 291 292 292 293 298 301 298 302 303 304 299 291 294 290 289 292 292 292 290 289 290 294 296 293 293 294 297 301 302 303 304 305 306 308
303 304 304 304 304 302 302 295 293 295 287 295 295 295 297 299 293 299 301 296 297 293 295 291 288 293 294 293 291 291 288 288 292 294 294 294 295 299 301 302 303 304 305 306 308
302 303 304 304 302 302 298 296 301 299 288 292 295 295 297 298 294 296 298 295 293 292 294 289 292 295 292 291 289 290 288 289 289 293 296 296 293 297 300 303 304 305 307 307 308
302 302 303 303 298 299 296 300 302 301 286 286 290 297 296 299 294 300 302 297 292 289 293 294 297 294 293 291 291 287 293 291 291 291 287 295 286 294 297 299 302 305 308 309 310
301 301 302 301 298 296 297 302 302 300 274 286 290 302 296 291 293 295 302 298 291 290 294 291 292 292 291 292 294 290 296 294 294 292 291 292 289 293 297 297 301 307 310 312 313
301 301 301 300 301 299 301 302 301 284 274 283 288 288 288 289 292 296 296 298 297 292 294 293 298 296 295 296 296 298 295 294 293 292 285 290 290 292 297 298 303 308 311 312 314
301 301 299 301 294 301 302 297 283 276 284 281 283 287 286 286 289 292 291 290 287 284 286 291 292 296 298 294 297 295 290 284 283 283 283 292 289 293 298 304 306 307 310 313 315
300 298 297 299 301 301 299 287 274 279 280 286 285 285 282 287 287 290 288 287 291 290 287 285 283 291 296 293 290 292 291 286 278 281 286 291 287 294 304 307 308 310 311 312 314
298 300 299 300 302 301 291 278 277 280 283 281 283 280 282 286 285 285 286 285 290 292 285 284 285 293 296 296 296 292 288 294 287 289 286 289 293 300 303 304 306 307 309 310 313
298 296 295 301 303 298 287 277 279 283 284 283 277 281 278 282 281 283 283 288 289 293 295 291 284 293 295 297 297 295 297 287 289 279 279 286 289 293 297 299 303 304 307 309 313
297 291 297 302 301 292 281 280 282 286 285 281 280 279 280 279 281 281 282 286 286 289 292 292 291 289 294 292 291 292 290 291 291 289 283 284 289 301 298 299 300 304 307 309 311
295 286 298 299 287 287 283 282 285 284 286 284 284 283 281 282 281 282 282 286 290 288 284 295 291 286 288 295 297 295 292 292 286 284 288 285 288 302 302 299 299 302 306 308 306
290 290 297 296 282 283 283 282 284 283 283 283 282 284 285 281 278 282 284 290 290 287 287 295 290 284 285 290 294 291 292 292 290 290 286 283 289 302 300 298 301 302 305 305 302
291 284 289 293 288 281 280 281 281 286 285 285 284 286 284 282 284 280 282 286 287 287 290 294 290 286 283 286 291 287 289 291 290 286 286 287 289 292 295 297 301 303 304 302 298
291 285 286 283 284 283 282 281 280 280 285 286 284 283 282 279 281 281 284 286 287 291 293 294 286 288 288 289 288 287 287 288 288 288 284 287 287 292 296 299 300 303 301 299 294
286 287 286 285 283 281 281 280 280 282 282 282 282 284 284 282 283 280 284 285 286 289 288 292 285 287 284 287 287 284 286 288 288 288 288 289 289 296 299 300 299 295 295 293 292
294 292 289 284 282 282 282 281 281 283 284 285 285 283 283 286 289 290 291 291 290 287 287 288 287 284 280 284 284 281 285 287 288 290 290 287 292 296 295 294 293 293 290 290 289

GFSSW_sfc_thetae_093.txt.gz
Theta_e
309 309 309 310 310 310 310 309 309 308 309 309 310 310 311 311 311 309 304 307 310 317 313 310 316 315 312 308 314 312 301 299 301 301 304 307 304 309 311 308 309 311 311 317 320
309 309 309 309 310 309 309 309 308 308 308 309 309 310 311 312 308 305 312 320 320 314 309 305 307 309 307 308 310 306 301 301 306 307 305 306 306 307 306 306 307 309 313 315 316
309 309 310 309 309 309 309 308 308 307 307 308 310 310 311 311 304 304 315 317 320 316 312 308 309 308 304 306 306 306 300 305 306 308 308 306 306 309 306 304 308 307 310 313 313
309 309 309 309 308 308 308 307 307 307 307 308 310 311 311 309 293 310 311 311 318 316 314 311 306 302 302 301 306 302 305 306 307 308 307 305 307 305 307 307 311 311 312 312 312
306 306 307 307 307 307 307 307 307 307 307 309 310 311 310 302 300 308 308 311 312 315 311 308 305 303 300 302 303 302 303 305 307 306 306 307 304 304 305 310 312 312 311 312 312
306 306 306 306 306 307 307 306 306 307 308 309 311 311 307 296 305 306 306 305 305 309 309 309 306 306 303 302 300 302 302 302 303 303 305 302 303 305 307 310 310 310 311 312 313
306 306 306 306 306 306 306 306 307 307 308 310 312 311 304 301 309 310 308 306 306 305 303 308 309 306 306 301 305 304 299 301 302 302 302 305 300 301 307 309 309 309 311 311 313
305 305 305 305 306 306 307 307 307 307 309 311 312 310 300 308 311 308 311 310 310 307 304 306 308 306 305 306 302 296 298 293 299 300 302 301 295 303 308 308 307 309 310 311 313
305 305 305 305 305 306 307 307 307 308 310 311 311 307 299 307 306 309 310 306 308 309 308 304 303 300 300 296 293 295 288 290 295 300 299 300 297 303 307 306 306 308 309 311 312
304 304 305 305 306 306 306 305 307 309 309 308 308 301 304 299 301 302 305 307 305 305 303 299 298 295 295 293 286 288 288 291 291 296 298 296 298 302 304 305 305 306 307 308 310
304 304 305 305 305 306 305 305 299 300 299 295 296 296 296 302 306 303 304 300 301 302 296 299 291 289 292 295 294 292 291 290 293 297 297 295 296 297 301 302 301 303 305 306 307
303 304 304 304 304 305 305 298 296 297 291 298 297 297 300 302 296 301 304 295 296 293 298 295 290 294 296 296 293 292 290 290 293 295 294 293 294 298 301 302 303 304 305 307 308
302 302 303 303 304 304 301 298 303 303 292 295 297 298 299 301 297 299 302 299 294 291 292 292 294 297 294 293 291 291 290 290 290 293 296 295 292 296 301 304 304 306 307 308 309
302 302 302 302 300 302 299 302 304 305 289 291 292 298 299 299 294 303 301 300 296 292 291 293 297 295 294 292 292 287 294 292 291 290 285 297 287 296 299 300 302 304 308 312 314
301 301 302 302 300 299 299 304 305 302 278 289 292 304 298 293 293 295 302 299 292 293 294 289 290 293 292 293 294 290 295 293 293 290 290 292 290 293 299 296 301 306 309 312 315
301 301 302 302 303 301 303 304 303 288 278 286 290 290 290 292 292 294 295 301 299 293 294 293 295 296 295 298 297 297 294 294 294 292 285 289 289 291 295 299 302 308 310 313 315
301 301 300 302 297 303 304 300 286 280 288 284 285 289 288 287 288 290 291 291 289 286 287 291 291 296 298 293 297 295 292 284 283 283 282 293 290 292 300 305 305 307 310 313 316
300 299 298 302 305 305 301 291 278 283 283 289 287 286 283 286 287 289 288 287 292 290 288 284 281 292 297 294 292 292 291 285 279 281 285 293 287 292 305 307 308 310 311 313 314
299 302 303 303 306 304 294 283 282 283 285 283 284 282 283 287 286 286 286 286 289 291 285 285 284 294 297 297 296 291 289 294 288 290 287 290 294 302 304 304 305 306 309 310 313
300 299 298 304 306 300 292 281 283 286 286 285 279 282 279 282 282 283 283 289 288 290 290 291 284 292 295 297 296 294 296 287 290 280 280 286 289 292 298 299 302 303 307 309 311
299 294 299 303 303 294 285 283 284 287 287 283 282 281 282 281 283 282 283 287 289 288 289 290 291 290 294 291 289 291 291 292 292 290 283 283 288 301 299 299 299 302 306 308 309
298 291 301 302 291 291 286 284 286 286 288 286 286 284 282 283 282 282 282 286 291 289 285 290 291 286 289 295 296 295 292 293 286 285 289 288 289 302 302 300 302 304 306 308 308
295 293 301 300 285 287 286 284 285 285 285 285 284 285 286 283 279 283 285 290 290 288 287 288 288 284 284 291 296 292 294 294 293 292 287 285 288 302 299 299 303 304 306 307 305
295 287 292 294 291 285 283 283 283 288 286 287 286 287 285 283 286 283 284 287 289 288 291 290 285 288 283 288 292 289 291 293 292 287 287 288 290 294 296 298 301 305 304 305 302
296 288 290 287 286 286 284 283 282 282 287 288 285 285 284 281 283 283 286 287 289 290 290 288 288 290 291 292 292 291 290 291 289 290 285 288 288 293 297 298 301 301 302 300 297
290 290 290 288 286 282 284 282 282 283 284 283 283 285 286 283 284 281 284 286 286 290 288 291 287 290 286 290 289 287 288 289 289 289 289 290 290 298 299 300 298 297 295 295 292
298 296 292 285 286 285 285 283 283 285 286 287 286 285 285 287 291 291 292 291 290 288 288 288 289 287 281 286 285 282 286 287 289 292 291 287 292 296 295 293 288 288 290 289 289

GFSSW_sfc_thetae_096.txt.gz
Theta_e
310 310 310 310 310 310 310 310 310 309 309 309 310 310 311 312 312 309 304 311 311 316 312 305 305 313 311 308 312 312 300 297 299 300 302 309 306 310 310 307 309 311 311 316 324
309 310 310 310 310 310 310 310 309 309 309 309 309 310 312 313 307 305 317 320 322 315 306 302 301 308 306 306 305 303 301 299 304 305 304 307 307 307 306 306 306 308 313 315 318
310 310 310 310 310 309 309 309 308 308 308 308 309 311 312 312 304 306 318 320 320 319 310 310 305 304 302 304 303 302 299 304 305 307 307 306 306 309 305 303 307 307 310 313 313
309 309 308 308 308 308 307 308 308 308 308 309 310 311 313 309 293 308 317 316 318 314 309 308 307 300 299 298 304 299 303 304 305 307 306 304 307 305 306 307 311 311 312 313 312
306 307 307 307 307 307 307 307 307 308 308 309 310 311 310 303 303 309 316 313 309 313 310 308 304 303 297 299 300 300 301 304 306 306 306 306 303 304 305 309 310 311 311 311 311
306 306 306 306 307 307 307 307 308 307 308 309 310 312 305 297 307 308 307 305 305 304 308 307 305 306 302 300 300 301 301 301 303 303 304 302 302 303 305 308 308 309 309 310 311
306 306 306 306 306 307 307 307 308 308 308 310 311 311 303 301 309 310 308 306 306 303 301 305 307 304 304 300 304 301 297 299 300 301 300 302 298 299 305 306 305 307 309 310 311
306 306 306 306 306 306 306 308 308 308 309 311 313 309 301 311 310 307 308 308 310 309 304 304 304 302 302 304 301 297 298 292 299 301 302 301 294 301 305 305 305 306 308 309 310
305 305 305 306 306 307 307 307 308 308 310 311 310 309 299 308 303 310 310 306 308 309 309 307 301 297 300 296 293 295 289 291 294 299 298 297 294 300 304 303 303 305 308 309 309
304 304 305 306 306 306 306 307 308 308 310 310 309 300 304 300 302 304 305 303 302 302 302 302 297 292 292 291 285 288 289 291 291 296 296 294 295 299 302 303 304 304 306 307 308
304 304 305 304 305 305 305 305 299 300 304 296 297 301 300 302 304 303 306 303 300 296 292 299 292 287 290 292 292 292 291 290 294 296 295 294 294 297 301 302 300 302 303 304 306
303 303 303 304 304 305 304 298 297 297 290 297 297 297 299 300 295 301 305 296 294 289 293 293 290 295 295 293 293 292 290 290 293 296 294 292 292 295 297 298 300 300 301 303 305
302 302 303 303 303 302 301 298 303 303 291 294 299 297 298 300 296 298 301 299 295 291 291 288 292 296 294 292 290 291 290 290 289 293 294 292 290 293 298 300 301 302 304 305 306
302 302 302 303 299 302 300 302 304 305 287 291 293 296 300 300 293 301 303 298 293 290 292 291 294 291 291 291 292 287 294 293 291 289 284 292 283 291 297 299 300 301 303 306 312
301 302 302 302 301 299 300 303 304 303 279 292 294 304 300 294 294 294 300 295 289 290 291 288 290 290 288 291 294 291 295 292 292 289 288 288 285 290 296 295 299 304 309 313 315
302 302 302 302 303 302 303 304 302 287 279 287 292 291 290 292 292 293 293 296 295 291 292 290 294 293 292 293 295 297 293 292 292 289 282 287 287 288 292 296 301 307 309 312 314
301 301 300 301 297 304 304 299 286 281 289 285 286 289 288 286 288 289 287 286 284 283 284 288 290 294 295 288 294 294 290 282 280 281 280 290 287 290 296 303 305 306 308 311 314
300 300 303 302 304 305 301 291 279 285 285 288 287 286 283 286 288 289 287 285 289 288 284 282 281 290 295 292 290 291 290 284 277 279 283 290 284 291 300 306 307 308 309 311 311
300 301 302 303 306 304 294 283 283 284 286 284 284 282 282 285 286 286 285 284 287 290 282 281 283 293 294 295 293 291 287 294 287 287 283 288 291 299 302 303 305 305 307 308 309
296 298 298 303 305 300 291 284 284 287 287 285 279 283 279 281 281 282 283 287 286 291 291 285 279 291 293 295 294 293 295 286 288 280 279 285 287 289 295 299 300 301 304 306 307
296 293 300 303 303 294 285 285 285 288 287 283 281 280 281 280 282 282 282 286 290 289 290 287 284 285 292 288 288 291 289 290 290 288 280 281 287 298 295 296 298 302 305 305 304
297 290 300 302 291 290 286 285 287 286 288 286 286 284 282 283 281 281 281 285 291 290 284 288 287 281 287 294 296 293 291 291 285 284 288 287 286 298 299 299 302 303 304 304 303
293 292 299 300 285 286 287 285 286 286 286 286 284 286 286 283 279 283 284 289 290 288 285 288 284 280 283 289 294 290 291 292 292 291 286 283 286 297 297 300 302 300 301 302 300
295 287 292 294 290 286 283 284 283 288 287 288 286 287 285 283 286 282 284 288 291 290 292 289 283 280 278 285 291 288 290 292 291 286 286 286 287 292 295 296 298 298 299 299 298
295 290 290 286 287 286 285 284 283 282 287 287 285 285 284 280 282 282 285 286 289 291 290 288 282 284 285 286 292 291 290 290 288 289 285 287 288 291 294 294 294 295 295 294 292
289 290 289 288 288 285 286 283 283 284 284 283 283 285 284 282 284 282 285 285 285 290 288 289 285 286 284 290 291 287 288 290 290 290 289 290 289 293 294 291 289 289 288 287 286
296 295 292 287 287 286 286 284 284 287 287 287 286 285 284 287 289 290 290 290 290 288 288 287 285 286 281 287 287 282 287 288 290 290 289 284 287 290 289 284 283 283 284 283 283

GFSSW_sfc_thetae_099.txt.gz
Theta_e
310 311 311 311 311 311 311 311 311 310 310 310 310 310 311 312 312 306 300 308 310 318 314 304 300 299 303 300 301 304 296 293 294 295 298 305 303 307 306 302 304 307 308 319 325
310 311 311 311 311 311 310 310 310 309 309 309 309 310 311 313 306 302 311 320 319 317 304 300 295 297 299 298 298 294 292 295 299 300 299 303 301 301 303 302 302 305 310 318 321
310 311 311 310 309 309 309 308 308 309 309 309 309 310 312 312 302 304 322 321 321 320 307 305 304 298 294 298 298 295 292 297 299 303 304 301 301 303 301 299 302 302 305 308 310
310 309 308 308 308 308 308 309 308 308 309 309 309 310 312 307 291 302 319 321 321 313 308 303 302 296 291 291 296 293 298 298 299 302 302 301 302 301 302 302 306 305 306 307 307
307 307 307 307 307 307 308 309 308 308 308 308 309 310 308 299 302 308 317 315 314 310 306 304 301 299 294 293 294 294 296 299 301 301 301 302 300 300 301 302 305 306 306 305 306
306 306 307 307 307 307 307 308 308 308 308 309 310 311 304 292 305 307 306 303 303 300 304 305 301 301 298 297 294 296 297 297 298 299 298 298 298 298 301 302 303 305 304 305 305
306 307 306 307 306 307 307 307 308 308 308 309 310 309 301 297 307 304 305 300 301 300 296 298 298 295 297 295 300 299 293 296 296 295 295 297 293 294 298 301 301 303 304 305 305
307 306 306 306 306 306 307 308 308 308 309 310 311 306 296 310 305 304 302 302 304 303 302 300 299 295 292 296 296 293 293 287 295 297 298 294 289 297 300 299 300 301 303 305 306
306 306 305 306 306 307 307 307 308 308 309 311 305 303 299 310 302 302 302 301 301 305 303 306 299 292 291 287 286 289 284 287 290 296 296 293 291 297 299 300 300 301 301 303 305
305 305 304 305 306 306 306 306 307 308 308 308 306 299 304 299 300 301 301 302 298 296 294 295 294 289 284 282 279 282 285 287 287 293 294 292 291 295 296 297 296 296 299 300 302
304 304 304 304 305 305 303 298 294 295 299 296 297 297 300 301 299 297 302 300 298 293 285 289 287 285 284 286 287 287 286 285 288 292 291 290 288 292 295 296 295 296 295 296 301
303 303 303 303 303 305 301 294 294 293 287 295 295 295 297 298 293 295 301 295 293 286 288 285 282 289 293 291 288 287 284 284 288 292 291 289 287 289 292 292 295 294 295 296 297
302 302 303 303 303 300 297 295 300 300 286 291 296 296 298 297 292 294 298 295 291 288 289 285 287 292 291 290 289 288 285 285 286 290 290 288 286 288 293 295 297 299 298 299 298
301 302 302 304 299 299 296 299 300 300 282 289 292 296 299 299 293 298 299 294 291 287 288 287 292 290 289 287 288 283 291 289 287 287 281 287 279 286 290 293 295 297 300 300 299
301 302 303 302 295 295 297 300 300 298 277 292 293 302 299 293 293 293 297 292 285 285 286 283 285 286 285 287 290 287 291 290 289 287 283 284 280 285 291 291 294 299 298 300 301
301 302 302 300 297 298 301 300 297 285 277 286 293 291 289 290 290 291 291 293 291 286 286 285 290 289 289 291 290 291 289 290 289 286 278 284 283 283 288 292 296 303 307 309 310
301 301 299 300 294 300 299 294 283 278 289 283 284 286 285 284 286 287 287 285 281 278 279 285 286 290 292 287 290 289 286 278 277 278 277 287 284 285 293 296 300 304 304 306 307
300 301 299 300 300 301 297 287 276 284 282 286 284 284 282 285 285 285 284 281 286 285 281 278 276 286 291 287 286 286 286 279 274 275 279 287 281 287 295 299 304 306 305 305 305
300 296 297 299 300 299 290 279 279 282 284 282 282 280 280 283 282 282 281 281 284 288 279 278 278 287 288 291 292 287 283 288 283 286 281 285 290 297 299 301 301 303 302 301 301
293 295 294 299 300 296 286 282 283 286 285 283 277 281 276 279 279 280 281 285 285 289 289 284 276 285 288 292 294 291 293 283 284 277 276 284 286 285 290 293 298 299 298 298 298
291 288 295 299 299 290 279 283 284 286 286 282 280 279 280 279 280 279 280 284 286 288 288 284 282 281 287 287 286 287 286 287 288 285 280 279 283 289 291 297 298 297 296 295 294
291 284 296 298 286 287 281 284 288 285 288 285 285 283 281 281 279 279 279 283 288 287 282 286 283 278 281 289 293 292 288 289 280 281 285 284 282 294 296 298 297 297 297 295 293
289 287 295 296 280 280 285 285 286 285 285 284 284 286 285 281 277 282 283 289 290 286 283 286 281 273 278 287 291 288 290 291 291 288 284 281 282 295 297 293 294 292 293 291 291
289 282 287 290 286 283 281 283 282 288 286 286 284 285 284 282 284 281 282 287 290 288 291 288 283 278 274 281 285 283 287 292 290 283 285 285 284 288 289 287 288 288 289 288 288
289 285 287 281 281 282 283 283 282 281 286 286 283 284 282 278 280 279 283 283 287 290 289 286 280 282 282 284 285 284 286 289 288 287 284 283 281 285 284 284 284 286 286 285 285
285 286 284 284 286 281 283 281 281 283 283 282 282 283 283 280 282 280 283 284 283 288 288 288 281 285 283 288 288 286 289 287 286 286 285 285 282 288 286 284 283 282 282 282 282
292 290 287 285 283 281 282 283 282 283 285 287 284 284 283 285 287 288 288 288 287 285 284 286 284 283 280 286 286 282 285 284 283 283 284 279 281 286 281 280 280 280 280 280 281

GFSSW_sfc_thetae_102.txt.gz
Theta_e
311 310 311 312 312 312 312 311 310 310 310 310 310 310 311 312 312 306 298 304 308 318 314 302 299 296 299 297 301 300 290 289 290 293 296 302 301 305 303 300 303 304 304 311 326
310 311 311 312 311 310 310 310 309 309 309 310 310 310 310 312 306 302 310 318 320 316 302 299 296 293 293 295 297 293 289 293 298 298 298 301 300 301 301 301 301 302 308 320 324
310 311 311 310 309 309 308 309 309 309 309 309 309 310 311 311 301 303 322 319 321 318 305 304 302 299 290 295 296 292 292 297 297 298 299 298 299 302 300 297 302 301 303 306 311
310 310 309 308 308 308 308 309 308 309 309 309 309 310 311 307 285 302 323 322 322 312 306 301 299 294 289 288 293 292 297 297 297 298 297 297 300 299 300 301 305 303 304 304 305
309 308 308 308 308 308 308 308 308 308 308 309 310 310 306 298 299 308 320 320 311 307 303 302 299 297 293 293 291 290 293 295 297 298 298 300 297 299 300 302 303 303 303 303 303
308 307 307 308 308 307 307 308 308 308 308 309 310 310 302 290 300 308 307 304 303 306 303 303 302 299 295 294 292 295 294 294 295 294 295 295 296 295 299 301 300 301 300 301 302
308 307 307 307 307 307 307 307 307 307 308 309 310 308 301 295 303 302 304 299 299 298 295 297 296 292 292 290 295 295 290 293 295 294 293 293 292 293 296 299 299 299 299 301 301
308 307 307 306 306 306 307 307 307 307 308 309 310 305 295 306 304 304 301 300 301 300 299 300 299 294 291 292 291 289 289 284 291 293 294 293 288 296 296 295 296 297 300 301 302
308 307 306 306 306 306 306 306 307 307 308 308 303 301 296 313 305 308 301 299 299 300 299 302 299 292 291 284 281 285 282 284 287 293 292 292 289 296 296 297 297 299 300 301 302
308 306 305 305 306 306 306 306 306 306 307 307 305 297 302 299 298 300 299 300 297 296 294 291 290 288 284 281 276 277 281 282 283 290 291 290 290 294 297 296 295 295 297 298 300
306 305 304 304 304 305 302 296 290 291 296 295 296 297 299 300 298 297 299 298 296 292 285 287 281 279 285 285 286 285 282 281 284 289 288 287 287 291 295 291 291 294 293 294 296
304 303 303 303 303 304 299 292 293 292 286 294 294 296 300 299 292 295 298 292 292 286 288 284 280 285 289 289 287 285 282 282 286 289 287 286 286 291 290 291 292 291 291 292 293
303 302 302 303 303 300 294 294 300 297 285 290 294 294 295 297 292 291 295 294 290 287 287 283 286 291 289 286 285 285 284 284 284 288 289 286 284 288 292 292 294 295 295 295 295
302 301 302 303 299 297 294 298 298 298 283 288 292 296 299 298 291 297 294 292 287 284 285 285 289 288 285 284 286 281 287 287 285 283 279 285 277 286 289 291 293 295 295 296 297
301 301 302 302 293 292 297 298 298 297 274 292 293 301 299 291 290 292 294 290 283 284 283 281 283 282 281 283 286 282 289 287 286 283 283 284 280 285 288 288 290 293 301 303 305
301 301 301 298 295 296 298 298 297 284 275 286 290 287 287 288 288 289 290 292 290 285 284 283 286 284 284 288 289 290 287 287 287 285 277 282 282 282 286 289 291 302 304 304 304
301 300 298 299 292 298 297 294 283 278 288 282 282 285 284 283 285 285 284 282 280 277 277 283 284 287 289 285 288 287 282 276 273 276 275 285 282 284 291 294 295 299 301 301 302
300 299 297 298 297 298 296 286 277 283 281 285 283 283 281 282 282 283 282 279 283 282 279 276 275 283 288 284 281 282 284 277 271 273 278 285 279 284 297 301 302 302 300 298 297
299 293 292 296 299 298 290 276 278 281 283 281 282 279 279 281 281 280 280 279 283 286 278 278 277 286 287 287 289 285 282 287 280 282 279 284 287 294 297 297 297 296 295 294 293
292 294 293 297 299 295 285 283 281 285 284 283 277 280 276 278 278 278 279 283 283 286 287 283 275 284 286 288 289 289 291 279 281 273 274 281 285 285 288 293 294 291 290 290 290
292 288 295 297 297 290 279 283 283 287 286 282 280 279 279 278 279 277 279 282 284 286 288 284 280 279 284 285 285 287 285 286 285 283 277 277 280 286 287 290 289 290 289 288 288
291 284 295 297 285 286 281 284 288 285 287 285 284 283 281 280 279 278 279 282 287 286 280 285 281 276 279 286 289 290 287 286 278 280 284 282 281 289 287 287 288 287 288 288 287
288 286 294 295 277 279 285 285 286 285 285 284 283 284 283 280 277 281 282 288 289 285 282 286 278 273 275 285 289 287 288 289 289 286 283 280 280 289 287 285 286 285 285 285 285
289 279 285 288 285 283 282 282 282 288 286 286 284 284 283 280 283 279 280 285 288 286 291 289 281 277 274 279 284 282 285 287 288 282 281 279 281 282 282 281 283 283 284 284 284
285 282 286 279 281 282 282 283 281 281 286 285 283 283 281 278 279 278 282 281 285 289 289 286 281 282 281 282 283 282 285 286 285 285 281 280 279 280 280 280 281 282 282 282 281
283 283 285 283 283 280 282 281 281 282 282 281 281 283 282 279 280 278 282 281 281 287 287 286 280 283 280 284 284 283 285 283 283 284 283 281 279 282 282 281 279 280 280 279 280
290 289 286 285 282 280 280 283 282 282 285 286 284 283 283 285 287 287 287 287 286 283 282 282 282 282 280 285 285 278 281 280 280 281 281 277 281 281 278 278 277 278 278 278 278

GFSSW_sfc_thetae_105.txt.gz
Theta_e
312 311 311 312 312 312 311 310 310 310 310 310 311 311 311 311 311 305 297 300 306 316 315 302 298 296 298 295 298 298 289 284 287 290 292 300 299 302 302 299 302 304 303 308 323
312 311 311 312 311 310 309 309 309 309 309 310 310 310 310 311 305 301 308 315 318 321 300 297 295 292 290 294 295 293 287 290 295 295 295 299 296 300 299 300 299 302 306 307 316
312 311 311 311 310 309 309 308 308 309 309 309 310 310 311 310 297 297 320 318 321 316 302 302 301 298 288 292 293 290 290 295 296 297 298 294 296 299 298 297 300 301 302 305 305
312 311 311 309 309 309 308 309 308 309 309 309 310 310 311 306 284 300 320 320 322 310 304 299 297 293 289 286 289 289 294 295 294 297 295 295 297 296 297 298 303 303 303 303 304
312 311 309 308 308 308 308 307 307 308 308 309 310 310 305 295 296 304 322 322 311 306 300 298 295 294 291 292 293 289 291 292 294 295 295 296 295 295 297 300 301 302 302 302 303
311 310 308 308 308 308 307 307 307 307 308 308 309 310 301 288 297 304 306 302 301 302 300 301 299 299 291 290 288 293 292 292 294 294 292 292 293 292 296 299 298 300 299 300 301
311 309 308 308 307 307 307 307 307 307 307 308 309 308 300 292 300 299 302 298 297 298 294 295 295 291 290 288 292 291 288 290 293 292 292 293 291 291 295 296 295 296 297 299 299
311 309 309 307 307 306 306 306 306 306 307 308 309 306 293 304 303 304 302 300 300 298 297 298 296 292 289 290 289 286 286 283 290 291 293 290 287 293 296 293 294 295 297 298 298
310 309 308 306 306 306 305 305 306 307 308 308 302 298 292 310 305 306 304 299 298 298 297 300 296 291 289 284 281 282 279 281 284 290 290 288 286 291 295 296 295 297 296 297 299
310 309 306 305 305 306 305 305 305 305 306 306 304 294 297 296 298 297 298 299 295 295 294 291 290 286 283 283 276 276 278 279 280 286 286 284 284 289 292 292 292 294 296 297 297
309 308 305 304 303 304 300 294 288 289 296 293 294 294 297 298 298 295 298 295 294 291 285 287 281 279 283 286 287 285 283 282 285 288 285 285 285 287 291 291 291 292 292 293 294
309 306 304 303 303 303 298 290 290 291 283 292 293 297 300 300 293 296 296 290 290 285 286 283 279 284 286 286 286 285 282 281 285 287 286 286 285 289 290 290 291 292 293 292 292
308 305 303 302 303 298 292 293 298 294 282 288 293 292 293 294 290 291 294 292 289 285 285 282 285 290 286 285 283 283 282 282 282 286 286 284 283 286 290 292 293 294 293 293 296
305 303 302 302 295 294 293 297 296 297 281 286 290 294 297 296 291 296 294 289 286 282 283 281 286 284 282 281 282 278 284 284 283 281 277 282 275 283 288 289 292 293 296 301 301
303 302 302 301 292 292 295 297 296 295 271 290 292 297 294 290 290 290 293 289 284 284 282 280 281 281 279 281 283 280 284 284 284 281 281 281 278 282 287 286 289 293 300 299 301
302 302 301 298 294 295 297 297 295 281 272 284 287 286 287 288 288 288 288 290 289 284 283 282 285 282 281 285 286 288 285 284 283 281 275 280 279 280 283 287 290 297 297 297 297
302 302 299 298 291 295 296 293 282 276 286 280 282 285 284 282 284 284 283 282 278 276 276 281 282 285 288 283 285 284 280 273 270 272 273 282 279 281 292 296 296 295 294 294 294
302 300 298 298 297 297 293 284 275 282 280 284 283 284 280 282 282 282 281 277 282 281 277 275 273 281 286 283 280 280 280 274 270 271 274 283 278 284 295 296 295 294 292 291 291
300 293 293 296 297 296 288 274 277 279 282 281 282 279 279 281 280 279 279 278 281 283 276 276 276 284 285 286 284 282 276 283 278 279 275 278 284 292 290 289 289 288 289 288 288
292 292 293 298 298 292 282 281 280 284 284 283 277 280 276 277 277 277 277 281 281 283 286 281 274 282 284 286 285 285 286 276 279 272 270 278 281 279 282 284 287 286 286 286 286
292 288 294 296 297 288 278 281 283 286 286 282 280 279 278 278 279 277 279 282 282 283 285 282 279 279 282 280 279 284 283 284 283 281 273 274 276 285 283 284 284 285 285 285 284
291 283 294 296 285 285 281 285 288 285 287 285 284 283 280 280 278 278 278 281 285 285 279 283 278 275 277 284 286 284 283 286 280 278 282 280 276 287 284 284 284 283 284 284 283
286 286 293 294 278 280 285 284 286 285 284 284 283 283 283 279 276 280 281 287 287 284 281 284 278 271 275 284 287 285 286 286 288 286 280 277 276 286 284 282 283 282 282 282 282
287 279 285 288 285 283 281 282 282 286 285 285 283 284 282 280 282 278 280 283 286 285 290 287 278 276 272 277 282 280 283 285 285 281 279 278 277 279 279 279 280 280 281 281 281
287 282 286 279 281 282 282 282 281 280 285 284 282 282 281 277 278 278 280 280 283 286 286 286 279 281 281 282 282 282 283 284 283 285 278 278 276 277 278 277 278 279 280 279 279
285 283 286 282 283 282 282 281 281 282 282 281 280 282 281 278 280 277 280 280 278 284 286 286 277 281 279 283 283 279 280 280 282 282 281 279 275 280 279 279 277 277 277 277 277
289 289 286 283 281 280 280 282 282 282 284 285 283 281 281 283 287 287 287 287 286 283 282 282 279 280 278 283 280 272 278 278 278 279 280 277 277 278 276 276 276 276 276 276 277

GFSSW_sfc_thetae_108.txt.gz
Theta_e
313 313 312 311 312 312 310 309 309 309 309 310 311 311 311 311 311 304 295 299 305 315 315 301 296 294 296 294 296 295 287 282 286 289 290 298 298 300 300 298 300 303 302 305 315
314 313 312 312 312 310 309 309 309 308 309 309 310 311 311 311 304 299 306 312 315 319 300 296 293 292 288 293 293 292 287 287 294 293 293 298 294 298 298 298 299 301 305 306 313
315 314 312 312 311 310 309 309 308 308 309 309 309 311 311 310 294 291 319 316 318 318 301 300 299 296 286 291 292 290 287 293 295 297 296 294 295 298 296 294 298 299 301 304 303
316 314 312 312 310 309 309 309 308 308 308 309 310 311 311 304 283 296 319 318 322 308 302 298 296 291 289 286 287 288 292 293 293 295 294 294 295 294 295 297 301 301 302 301 303
315 313 312 311 309 308 309 308 307 308 308 308 310 311 303 290 291 299 322 320 313 305 297 296 294 293 289 290 290 288 290 291 292 293 292 293 291 292 294 297 299 300 301 300 301
314 312 311 309 308 308 308 307 307 307 307 308 309 310 298 284 294 303 306 306 301 300 299 299 298 297 289 287 285 289 288 289 290 291 292 291 293 291 295 297 296 296 297 299 299
314 312 311 309 308 308 307 306 306 306 306 307 309 307 298 290 298 299 302 297 297 299 294 295 294 289 289 288 289 288 285 286 288 288 289 291 286 289 293 295 294 294 294 296 297
313 312 310 308 307 307 306 306 305 305 306 307 308 304 292 302 301 303 301 301 300 297 295 296 295 292 289 290 289 284 283 279 286 288 289 288 283 289 291 292 292 293 294 296 296
313 312 310 308 306 306 305 305 305 307 308 307 301 296 289 306 303 306 303 299 297 296 295 300 294 289 288 284 281 281 276 277 281 286 286 285 283 288 293 290 290 291 290 292 295
313 311 309 307 306 305 305 304 305 305 305 306 304 292 293 294 298 296 302 297 293 293 293 289 287 284 283 282 275 275 276 276 278 285 286 283 284 288 290 289 290 291 291 291 293
312 310 309 306 305 304 300 295 287 287 296 290 291 291 295 299 299 293 296 293 293 290 285 285 280 279 283 284 284 281 281 280 283 287 284 283 284 287 290 289 289 290 291 291 292
310 309 307 305 303 303 297 291 290 289 283 290 295 296 299 298 293 295 295 289 289 283 285 282 279 284 284 284 284 282 280 279 283 286 284 283 283 286 288 288 289 291 291 292 292
310 308 306 302 302 299 294 292 296 292 280 285 291 290 290 294 289 289 292 289 287 284 284 281 284 287 285 282 281 281 280 280 281 282 283 281 280 282 287 290 291 292 294 295 298
307 307 304 302 295 295 292 297 296 295 279 283 288 292 293 293 288 293 292 290 286 283 283 282 285 284 281 280 281 276 283 282 280 278 274 282 273 281 284 286 289 291 293 297 298
308 305 302 300 294 292 295 297 297 293 272 288 288 294 292 289 288 288 292 288 284 284 284 281 281 281 279 281 282 279 283 281 280 279 278 278 274 278 284 283 288 294 296 294 295
305 303 301 299 294 295 297 296 296 280 272 283 286 285 285 286 285 286 287 289 288 283 283 282 285 283 282 284 284 286 283 282 281 278 272 277 275 276 280 288 290 294 294 294 293
304 302 300 299 292 297 297 294 281 276 285 279 281 284 282 281 282 284 282 280 277 276 277 281 282 283 286 281 284 282 278 271 269 271 271 278 276 278 287 289 288 288 289 290 290
302 302 300 299 297 298 295 286 275 281 280 283 282 282 278 281 280 282 280 278 283 280 276 275 273 280 285 282 278 278 278 273 268 270 272 279 274 283 289 290 290 289 289 288 287
301 293 293 296 296 296 287 276 275 278 282 281 281 278 277 281 280 280 278 278 281 281 274 275 275 283 284 284 283 280 276 281 276 277 273 276 280 287 286 286 287 286 286 285 284
293 292 292 296 297 292 283 280 278 283 283 283 278 279 275 277 277 277 277 282 281 283 284 281 274 281 283 284 284 282 285 275 278 268 269 274 277 276 280 282 284 283 283 283 283
294 288 293 297 296 286 275 280 282 286 286 282 279 278 278 277 278 277 278 281 283 283 285 281 279 277 281 279 277 281 280 280 280 278 272 269 273 283 280 281 281 282 283 282 282
291 280 293 295 284 283 280 285 288 284 287 285 284 282 280 280 278 278 278 280 285 284 278 281 277 275 277 283 285 282 280 281 274 277 280 277 274 284 282 282 281 281 282 282 282
287 286 293 294 279 280 284 284 286 284 284 283 282 283 283 279 276 279 281 286 286 282 281 283 277 270 275 281 286 283 285 286 284 282 280 272 272 283 281 280 280 279 280 280 281
286 279 286 289 284 283 282 282 281 286 285 284 283 283 281 279 281 278 280 283 285 284 289 285 278 274 271 275 280 278 281 284 282 277 277 274 276 277 277 276 277 278 279 279 279
286 280 286 280 280 283 283 283 281 280 285 284 281 282 280 277 278 277 279 278 282 285 284 282 277 278 279 281 281 281 280 279 282 283 278 277 275 275 276 276 276 278 278 278 278
284 283 285 283 284 283 283 281 281 282 282 280 280 281 281 278 279 276 280 279 277 282 284 287 277 279 276 281 282 277 279 278 278 280 278 276 274 278 278 278 276 276 276 276 277
289 289 286 282 281 280 280 282 282 282 284 284 282 281 281 282 285 285 286 285 285 284 283 282 279 278 276 280 279 274 276 277 277 278 279 276 276 278 275 275 275 275 276 275 276

GFSSW_sfc_thetae_114.txt.gz
Theta_e
317 316 315 313 312 312 311 310 310 310 310 311 311 311 312 313 313 308 302 305 309 315 316 310 307 308 307 305 308 306 298 296 298 298 300 304 303 308 310 308 309 311 311 314 316
318 317 315 314 312 312 311 310 310 310 309 310 311 311 313 314 308 302 310 311 314 319 309 305 302 304 302 301 303 300 297 298 302 302 301 303 304 305 305 306 306 308 312 313 313
319 317 316 315 313 311 310 309 310 309 309 310 310 311 313 312 301 302 322 316 316 317 309 307 304 301 298 301 301 299 296 300 301 303 304 303 303 306 303 301 305 304 306 309 311
320 318 317 316 313 311 309 309 309 309 308 309 310 311 313 307 292 304 320 317 317 316 308 304 302 299 296 296 301 296 299 299 300 302 302 300 302 300 302 302 306 307 308 308 308
318 317 317 316 313 311 309 308 309 309 308 308 309 311 308 297 296 306 318 320 315 309 303 302 300 299 295 296 297 296 297 299 301 300 300 301 299 299 300 305 307 305 306 306 306
317 316 316 316 313 310 309 309 308 308 307 307 308 310 302 292 303 306 310 313 309 306 303 303 301 301 298 297 296 297 298 298 298 298 299 297 298 300 301 303 303 302 303 304 305
317 316 316 315 313 310 309 308 308 307 306 307 308 308 299 297 305 308 307 307 307 306 303 305 305 301 299 295 298 296 293 295 296 297 296 298 295 296 301 302 301 302 303 303 304
318 316 315 314 312 310 308 307 307 306 307 308 307 306 295 303 307 305 306 306 308 307 305 304 304 302 299 299 297 294 294 289 295 295 296 296 290 297 301 301 300 301 302 302 304
318 316 314 312 310 308 307 306 305 307 308 309 306 303 294 305 302 307 306 301 305 305 305 303 303 300 299 295 292 293 288 289 290 295 294 293 291 296 300 299 298 300 301 302 303
317 316 313 311 309 307 304 304 304 307 308 309 307 296 299 295 304 303 311 306 301 301 299 299 299 295 295 293 286 288 287 289 288 292 294 292 292 297 298 298 298 299 300 301 301
317 315 313 310 307 304 302 299 299 299 302 298 296 295 297 305 306 301 304 301 301 299 293 297 292 290 293 294 293 291 289 288 291 294 292 291 292 294 296 297 296 297 299 299 303
316 314 311 308 306 304 301 294 294 296 294 298 298 298 300 304 297 299 303 296 296 292 295 293 289 294 295 293 291 290 288 288 291 292 291 290 290 293 295 295 296 296 300 303 304
315 313 310 307 305 300 296 296 303 300 292 294 295 294 296 300 294 296 299 297 293 291 292 290 292 293 292 290 288 289 288 288 287 289 291 290 288 292 293 295 297 301 301 301 300
313 311 307 304 299 296 292 299 305 303 284 292 289 293 295 297 291 297 298 296 292 289 291 290 293 290 290 288 289 285 290 287 286 285 283 290 280 289 293 292 295 297 299 298 298
311 308 305 308 297 296 300 301 304 301 280 291 292 301 297 293 293 292 297 295 290 290 290 288 288 288 287 288 289 286 289 288 287 285 285 286 283 288 292 289 292 294 295 297 297
310 306 304 299 301 301 301 303 300 286 280 287 291 290 291 291 290 292 293 296 294 290 290 290 292 290 290 289 289 290 288 288 288 285 279 285 284 285 289 288 289 291 291 294 294
308 306 304 301 296 301 301 297 284 282 289 285 287 289 291 287 287 289 288 288 287 283 285 287 288 290 290 286 289 288 285 280 278 279 278 284 282 285 290 289 289 288 290 292 292
306 304 300 300 302 301 300 288 279 286 285 287 287 288 287 287 286 286 285 285 288 286 285 282 280 286 289 287 285 286 285 279 273 276 279 285 279 287 291 292 292 291 291 290 290
302 298 297 299 301 302 291 280 287 288 289 286 286 285 284 285 285 285 284 285 287 287 282 281 280 288 288 289 287 284 281 286 280 281 278 281 285 289 290 289 289 288 288 287 287
295 294 295 300 303 298 287 285 288 288 288 288 283 287 283 284 283 283 284 286 285 287 288 283 278 285 287 288 289 285 288 280 281 273 273 281 282 285 282 283 285 284 284 285 285
294 289 294 301 302 291 282 285 287 289 289 286 285 283 284 283 284 283 282 285 287 287 288 286 282 280 284 283 283 284 282 283 284 282 277 277 281 283 281 281 281 284 285 285 283
294 283 294 300 287 288 286 289 290 288 290 287 288 286 285 285 283 282 282 284 288 289 283 286 284 279 281 287 289 287 285 285 279 279 282 281 281 284 282 282 282 283 284 284 284
288 287 296 296 283 285 289 288 288 287 287 287 286 287 287 284 281 284 283 288 290 288 285 288 282 277 279 284 288 285 286 286 286 284 280 278 280 284 283 282 282 281 283 284 283
290 283 287 290 293 289 287 286 285 289 288 288 286 287 285 284 286 282 283 286 289 289 289 290 283 279 278 280 283 281 284 286 283 280 281 282 279 279 279 279 280 281 282 283 282
293 287 291 283 286 289 289 288 284 283 287 288 284 286 285 281 282 281 284 285 287 288 289 288 280 282 282 284 284 283 283 283 280 281 278 280 278 277 278 278 279 280 281 281 280
289 289 292 290 290 288 288 285 284 284 285 284 285 286 286 282 283 281 284 285 285 288 286 288 280 282 280 285 284 281 281 283 280 279 279 279 276 280 281 281 280 279 279 279 279
295 298 295 288 288 287 287 285 285 287 287 289 288 286 284 286 289 289 291 290 289 287 286 285 282 281 278 282 281 277 278 279 279 281 281 280 279 281 279 278 278 278 279 278 278

GFSSW_sfc_thetae_117.txt.gz
Theta_e
319 317 316 314 313 312 312 311 311 311 311 311 312 312 312 314 313 310 306 306 310 317 314 311 310 310 310 309 311 310 300 299 301 302 304 309 305 310 312 310 311 312 313 316 318
319 318 317 316 314 313 311 310 310 310 311 310 311 311 313 314 309 306 311 313 312 318 308 307 305 306 305 305 306 304 300 301 306 305 303 305 305 307 307 307 308 310 314 315 315
321 319 318 316 315 313 311 310 310 310 310 309 310 311 313 313 305 307 322 315 316 316 312 309 307 305 302 305 304 303 299 304 305 305 306 303 303 306 304 302 307 306 309 311 312
321 320 319 317 316 314 311 310 310 310 310 309 310 310 313 311 298 309 320 318 317 318 310 307 305 301 300 299 304 299 303 303 303 304 303 301 304 302 303 304 308 308 309 310 310
319 319 319 317 316 314 311 310 310 309 309 308 309 310 311 304 304 313 320 317 315 311 306 304 302 302 299 301 301 298 300 302 302 302 302 302 299 300 301 305 307 308 307 308 308
319 318 318 318 317 314 311 310 310 309 308 308 308 309 306 300 307 307 309 311 311 308 305 304 301 303 300 299 299 302 300 301 302 301 301 298 298 299 301 305 305 305 306 306 306
319 318 317 317 316 314 311 310 309 309 308 307 308 307 303 305 309 309 307 306 309 307 304 306 307 304 302 298 302 300 295 298 299 300 299 300 295 296 303 305 304 304 305 305 306
320 318 316 316 314 313 311 309 308 308 307 310 309 306 301 308 309 306 307 306 308 308 307 307 307 303 301 302 299 296 297 293 300 298 299 297 292 299 303 302 302 303 304 304 305
319 318 316 314 313 311 309 308 307 306 310 310 308 307 302 305 302 308 308 303 306 307 308 306 305 300 301 296 294 296 291 294 296 299 297 297 294 299 301 301 300 302 303 304 304
319 318 315 313 311 309 307 305 307 307 309 310 309 301 305 299 305 305 310 306 303 304 302 301 300 296 297 295 288 293 293 295 293 297 297 295 295 299 301 301 300 301 302 303 303
318 317 315 312 310 306 303 300 300 304 306 305 306 303 302 306 307 304 309 306 303 301 295 299 294 292 296 298 297 295 293 291 294 297 295 294 294 297 299 300 299 300 301 301 304
318 316 313 311 308 305 303 294 301 303 302 307 304 304 305 304 298 303 306 299 299 294 298 296 292 297 298 297 295 293 291 291 294 296 295 293 293 296 298 298 300 300 300 304 305
316 315 312 309 306 302 300 297 306 304 300 304 306 303 303 302 297 298 302 300 296 294 295 293 296 297 294 293 292 292 290 290 290 293 294 292 290 294 299 298 299 302 303 302 302
315 312 309 306 302 299 295 304 306 306 293 298 296 297 298 299 295 303 303 300 296 292 294 293 297 294 293 291 292 288 293 292 290 288 285 293 284 292 296 297 298 300 301 301 301
314 310 306 309 301 296 305 308 307 306 282 297 294 301 299 295 295 295 301 297 292 293 293 291 292 291 290 291 293 290 294 290 290 288 287 287 284 290 295 293 296 298 298 299 300
312 308 307 302 302 302 305 304 302 288 283 292 295 293 293 295 294 296 295 299 298 293 294 293 296 293 293 294 293 293 290 290 289 286 280 286 286 287 292 292 293 294 296 296 297
310 307 307 306 298 305 305 299 287 284 294 291 291 293 293 291 292 293 292 291 290 286 287 291 292 294 293 290 293 291 287 281 280 280 280 289 287 288 293 293 292 292 293 295 295
309 307 306 304 304 307 301 291 282 291 293 292 291 292 290 292 291 291 291 289 293 290 287 284 283 291 293 290 288 289 288 282 275 277 281 288 283 289 294 295 294 293 293 292 291
306 300 299 302 303 301 293 284 289 293 296 290 290 288 289 291 289 290 290 290 292 293 285 284 284 291 291 292 290 287 284 289 282 283 279 283 287 292 293 292 291 290 290 288 288
299 296 296 303 303 298 290 288 293 297 295 293 288 291 288 289 287 288 289 291 289 291 291 287 281 289 289 291 291 288 290 281 282 274 274 281 284 283 282 284 287 286 287 287 287
299 290 296 303 302 291 287 293 295 296 294 292 291 290 290 290 289 288 287 289 290 289 290 288 285 285 286 285 284 286 284 284 285 283 278 278 281 284 281 283 283 286 287 287 286
295 285 298 301 286 288 291 295 296 294 294 292 292 292 289 290 287 287 286 288 292 291 286 289 286 281 283 289 290 289 287 286 280 279 283 282 282 285 284 285 285 284 286 287 286
287 287 296 297 285 289 294 295 294 292 291 291 289 292 291 289 285 287 287 291 291 290 287 289 283 278 281 285 290 287 288 287 287 286 281 278 281 286 285 284 284 283 285 285 285
289 282 286 288 291 294 292 291 290 294 292 292 291 291 289 287 289 286 287 289 291 290 290 290 285 282 278 280 286 283 286 288 286 281 282 283 282 281 281 281 282 282 283 283 283
291 288 292 282 284 291 293 293 290 287 292 292 289 289 287 285 286 286 287 288 289 290 289 288 281 284 284 285 286 285 285 286 284 285 281 283 280 279 280 281 281 282 282 281 281
289 292 294 295 291 289 291 291 290 289 290 288 287 288 289 286 288 284 287 287 285 288 287 290 281 284 280 286 286 284 286 286 285 284 281 281 278 282 283 283 281 280 280 279 279
299 302 298 293 290 289 291 292 292 292 290 290 289 289 289 290 291 291 293 292 291 288 287 287 284 282 280 285 283 280 282 283 283 282 283 280 280 283 281 280 279 279 280 278 279

GFSSW_sfc_thetae_120.txt.gz
Theta_e
320 319 317 316 315 313 313 312 312 311 311 311 311 312 313 314 313 310 307 306 308 320 314 309 310 310 310 306 311 311 300 296 300 301 303 308 306 309 311 308 310 312 312 315 318
321 320 319 317 316 314 313 312 312 311 311 311 311 312 313 313 308 308 311 319 314 318 304 306 305 306 304 305 306 303 299 300 305 305 303 305 305 305 304 305 306 308 314 316 315
322 321 320 319 317 315 314 312 311 311 311 311 310 312 312 311 307 309 320 317 315 313 310 310 308 305 301 303 303 303 298 303 304 305 304 303 303 306 303 301 305 305 307 310 312
322 321 321 320 318 316 314 312 311 311 311 310 310 311 312 310 299 311 321 319 318 316 314 307 305 301 299 298 303 298 302 303 303 303 302 301 303 301 302 303 306 307 309 310 309
320 320 321 320 319 317 315 312 311 310 310 310 309 310 310 306 307 313 322 318 313 311 306 304 301 301 298 300 302 299 300 302 303 302 301 302 300 299 299 302 305 306 307 310 308
319 319 319 319 319 317 315 312 310 310 310 310 309 309 304 299 309 311 311 312 310 309 305 304 301 302 299 299 298 300 300 300 301 301 300 299 299 299 300 303 302 304 305 306 307
320 319 319 318 318 316 315 312 311 310 309 309 308 306 302 304 315 311 309 305 308 307 303 306 306 302 303 299 302 300 296 298 299 299 299 301 296 296 302 303 302 303 304 305 306
321 319 318 317 316 315 313 311 310 309 309 309 311 306 300 314 311 307 308 305 307 307 305 307 307 303 300 301 298 295 296 291 299 302 300 298 291 299 303 302 301 302 304 304 305
320 319 317 315 315 313 311 309 309 309 308 311 307 306 303 308 304 307 306 302 304 306 306 306 304 299 299 294 292 296 290 293 296 301 299 297 293 299 302 301 300 301 301 302 304
319 318 317 315 313 311 309 307 308 306 309 311 309 302 307 302 305 308 308 307 301 303 301 301 298 294 295 292 286 291 292 294 294 298 298 296 294 298 301 301 301 301 302 302 303
319 318 317 314 312 309 305 302 298 301 306 305 307 305 308 312 309 305 308 305 301 299 294 298 292 290 294 297 297 295 293 292 295 299 295 295 295 296 299 300 299 300 301 302 303
318 317 315 313 310 307 305 299 303 301 298 309 307 308 310 310 302 305 308 301 299 293 296 294 291 296 298 298 296 294 292 291 294 296 295 294 293 296 298 298 299 299 301 303 303
316 317 314 311 308 305 302 301 309 307 298 304 308 307 307 308 302 302 305 300 297 295 295 293 296 300 297 294 292 292 291 291 290 293 294 292 290 293 297 300 301 302 303 302 301
316 314 310 307 304 306 301 308 311 307 295 295 301 303 307 303 297 305 306 301 297 293 294 294 297 295 294 292 293 288 294 292 291 288 283 292 282 289 294 295 298 300 300 299 299
314 310 307 311 306 301 308 309 309 306 281 297 297 304 301 297 297 297 305 300 294 295 295 291 293 292 291 291 294 290 294 292 290 287 286 286 283 288 293 292 294 296 297 297 297
312 309 308 304 304 308 309 305 305 290 281 294 296 293 294 295 296 297 296 299 298 293 293 292 297 295 293 295 294 294 291 290 289 287 280 285 285 285 290 292 292 293 294 294 294
311 309 309 307 300 307 305 300 288 284 296 292 293 295 294 292 293 293 292 291 289 286 286 291 292 295 296 290 293 291 287 280 279 280 279 289 286 287 291 292 292 291 292 292 292
310 308 310 309 309 307 301 293 283 290 291 295 294 294 291 294 293 292 291 289 293 291 288 285 284 292 295 291 288 288 287 281 274 276 280 287 281 285 293 293 292 292 291 291 289
310 304 301 304 306 305 296 285 288 291 296 295 293 289 289 292 292 292 290 290 293 294 286 285 285 293 292 293 291 287 283 289 282 283 279 281 285 291 291 289 289 289 289 288 287
301 298 297 304 306 300 292 287 292 297 299 297 289 291 288 291 288 289 289 293 292 294 294 289 282 290 291 293 291 288 290 281 283 274 273 280 282 280 282 283 286 286 286 287 287
300 292 298 303 303 293 285 289 295 300 301 294 293 291 291 290 291 289 289 290 292 291 292 289 286 285 289 287 285 286 285 284 284 281 275 275 280 284 282 283 284 285 286 286 285
296 286 298 301 286 286 288 294 298 298 301 295 295 293 292 292 290 290 289 291 293 292 286 290 286 281 284 290 291 288 285 285 279 277 281 280 280 285 284 285 285 284 285 285 285
289 288 298 297 284 285 291 294 297 296 296 292 291 293 295 291 287 290 290 292 293 290 288 289 283 278 279 285 288 284 287 288 287 285 280 277 279 285 285 284 284 283 284 284 284
289 283 286 289 291 289 290 293 292 298 296 295 292 294 292 289 291 287 288 291 292 290 291 291 285 281 276 281 285 282 286 288 286 281 281 281 279 281 282 282 282 282 283 282 282
292 288 291 281 285 288 293 293 291 292 294 295 291 291 289 286 288 287 289 289 290 292 290 288 280 283 283 284 284 284 284 285 284 285 281 283 282 280 281 281 281 282 282 280 280
288 293 293 293 291 287 288 292 292 293 292 290 289 291 291 287 288 286 289 289 286 289 287 289 280 284 279 284 284 282 285 285 286 286 285 283 282 283 283 283 281 280 279 279 279
300 302 297 292 290 286 288 292 293 295 295 294 292 291 289 290 292 294 292 292 291 288 286 286 284 280 277 285 285 280 285 286 287 287 285 281 282 282 280 279 279 279 279 278 278

GFSSW_sfc_thetae_123.txt.gz
Theta_e
322 321 320 318 317 317 315 315 314 313 313 312 313 312 314 314 312 308 305 304 307 317 315 303 304 305 303 298 299 299 291 288 291 293 296 302 301 303 304 302 306 309 310 311 312
323 322 320 320 318 317 316 315 314 313 313 313 312 313 313 313 306 305 315 320 318 320 301 300 301 301 296 296 297 294 289 291 298 297 295 298 296 299 300 300 301 304 308 309 309
323 322 322 320 319 318 316 315 314 313 313 313 313 313 312 311 305 305 322 321 321 317 304 306 305 301 295 294 294 292 290 296 299 299 299 295 296 299 296 295 301 300 303 306 307
323 322 322 321 320 319 317 315 313 312 312 312 312 312 312 308 296 305 322 321 322 314 311 307 301 295 293 291 295 290 296 297 298 299 297 295 296 296 297 298 301 299 302 304 305
321 321 321 321 320 319 317 315 313 313 311 311 311 310 307 301 304 312 322 319 312 310 306 301 297 296 293 294 294 292 295 297 298 297 296 297 295 295 296 298 300 301 302 301 302
320 320 320 320 320 319 317 315 313 312 311 311 310 311 302 297 308 313 312 309 307 306 304 301 298 298 295 295 293 296 296 295 296 295 295 295 294 293 297 298 298 299 298 301 301
320 319 319 319 319 318 317 315 313 312 311 310 310 307 299 299 310 306 306 301 302 302 301 303 303 299 298 294 299 296 291 293 295 296 294 296 290 291 296 298 298 296 298 300 299
321 319 318 318 318 317 316 313 311 311 310 310 311 305 295 312 306 304 302 302 304 304 302 303 303 300 297 297 295 291 291 286 293 296 297 293 287 292 296 295 294 297 298 298 299
320 319 317 317 316 315 314 312 310 310 310 310 304 301 299 311 303 307 301 300 301 302 302 305 302 296 296 290 287 290 285 288 291 297 293 290 288 294 296 296 295 295 296 296 296
319 319 318 316 315 313 311 309 309 307 306 306 308 299 304 303 305 306 304 304 301 299 299 297 294 289 288 285 280 284 286 288 288 293 292 289 288 292 296 295 293 292 294 294 299
318 318 317 316 314 310 306 303 297 297 299 300 302 301 307 311 306 303 305 303 301 294 290 294 287 284 287 289 291 290 290 287 289 294 292 290 289 290 294 292 291 293 293 298 298
317 317 317 315 312 309 305 302 301 300 293 305 305 305 309 311 303 304 306 298 297 289 291 289 286 291 294 294 292 291 288 287 291 294 292 288 287 290 291 292 293 294 296 296 296
317 316 316 312 310 306 302 304 305 303 291 300 305 305 307 308 302 301 302 298 294 291 291 287 291 297 295 292 291 289 287 287 287 289 288 286 285 287 292 294 298 296 296 295 294
315 315 312 309 305 304 302 307 307 302 287 294 299 303 306 305 298 303 305 300 294 290 291 290 295 294 292 290 291 284 291 290 289 284 279 286 277 285 289 291 294 293 292 291 291
314 311 308 311 304 301 305 308 304 302 276 295 294 303 302 298 295 296 302 298 292 292 292 288 290 289 288 289 292 287 292 288 287 282 281 283 277 283 289 288 289 290 290 289 290
313 310 309 306 304 304 308 305 302 287 278 292 293 293 293 295 295 294 296 296 294 291 292 290 293 290 290 293 292 292 288 287 285 281 275 282 280 280 284 287 288 289 289 288 288
312 310 309 305 300 304 304 301 287 281 294 290 290 292 291 290 291 291 289 287 284 281 282 287 289 292 293 288 290 287 282 274 274 274 275 285 282 285 287 288 288 288 287 288 286
311 309 309 307 307 303 301 292 282 288 289 296 294 292 288 292 290 291 288 284 288 287 283 280 279 289 293 288 285 285 283 277 272 272 275 283 278 282 288 289 290 289 288 287 285
310 306 302 306 307 304 296 284 284 288 294 292 293 288 288 291 291 289 287 286 288 289 282 281 283 290 291 291 289 285 279 286 280 279 276 278 282 286 288 286 287 287 286 284 283
302 299 298 304 306 300 292 287 290 295 296 295 289 290 285 287 287 286 287 291 290 292 291 287 278 288 290 291 289 285 288 276 278 272 271 276 279 280 281 282 285 285 284 283 283
299 293 299 304 303 292 285 288 292 297 298 294 292 290 289 288 288 286 287 289 291 289 289 286 282 282 287 284 283 284 280 282 281 278 271 268 270 284 280 283 283 284 284 283 282
297 287 299 303 286 286 286 291 296 295 298 296 296 292 290 290 288 288 287 291 291 290 284 287 283 276 281 288 289 286 283 283 273 275 278 277 273 284 283 285 284 283 284 283 282
291 288 298 298 284 283 288 291 294 294 295 295 294 293 291 287 283 288 288 292 291 288 285 286 279 273 277 282 287 284 287 287 286 281 277 272 272 285 285 283 283 282 282 282 281
288 282 287 290 289 287 286 288 290 296 295 297 294 292 288 287 289 285 286 291 291 289 293 289 282 277 274 278 282 279 283 286 285 279 276 275 273 280 282 281 281 281 281 280 280
291 285 287 280 284 287 290 290 288 290 295 296 293 289 287 283 284 283 287 286 289 291 288 284 278 277 280 283 283 281 281 282 278 282 276 275 277 279 282 281 280 281 280 279 278
288 288 287 285 287 287 288 289 289 292 293 290 289 289 288 284 285 283 286 284 282 287 285 285 276 275 271 282 282 279 281 282 280 281 278 278 278 282 282 282 280 279 279 277 277
296 294 289 288 285 285 286 287 290 292 294 293 291 288 287 288 291 289 289 289 289 285 283 281 277 272 272 282 283 275 278 280 281 284 284 280 280 282 280 279 278 278 278 276 276

GFSSW_sfc_thetae_126.txt.gz
Theta_e
322 321 320 319 318 317 317 316 315 314 314 314 314 315 315 314 312 308 303 307 309 317 316 300 301 302 301 297 297 297 290 286 289 291 294 298 297 301 301 299 302 305 304 308 311
323 323 321 321 319 318 317 316 315 315 314 314 314 315 314 313 307 305 315 318 316 318 300 299 300 300 295 295 295 293 289 291 296 295 294 297 291 295 297 298 299 300 304 306 307
323 323 323 322 320 318 317 316 315 314 314 314 314 315 313 311 305 304 322 320 318 315 304 306 306 300 293 292 292 290 289 294 297 298 297 293 293 295 293 292 298 297 298 301 304
322 322 322 322 321 319 317 316 315 314 313 313 313 314 313 308 298 304 322 321 320 311 306 305 298 294 292 290 292 289 294 294 295 296 294 293 295 294 295 296 300 298 299 299 301
321 321 322 322 321 319 317 316 315 314 313 312 312 312 306 300 303 310 322 319 309 307 303 301 295 293 290 291 292 290 292 295 295 294 293 295 292 293 294 297 298 299 299 298 300
320 320 320 321 321 319 318 316 314 313 312 312 311 313 299 297 308 310 311 307 306 303 302 300 296 297 294 293 291 294 294 293 294 295 293 293 293 291 296 297 297 296 296 298 299
320 320 320 320 320 319 318 316 315 312 312 311 311 308 298 302 308 304 308 300 301 299 296 299 299 297 297 294 297 295 290 292 294 293 293 294 290 291 296 295 296 294 294 297 303
321 320 318 319 318 318 317 316 313 313 312 311 310 304 296 310 307 307 302 301 303 302 301 300 299 297 294 296 294 290 290 285 293 294 295 293 287 293 294 293 293 294 297 299 302
320 319 318 317 316 316 316 314 313 312 312 312 303 300 298 314 302 306 304 299 301 301 300 303 299 293 293 287 285 287 282 286 290 296 293 290 287 292 294 295 294 292 294 298 298
319 319 318 316 316 315 313 312 310 308 307 306 306 298 303 304 305 304 301 300 297 298 298 296 291 287 286 283 279 282 283 282 285 292 290 288 286 291 293 293 291 291 294 296 295
318 318 318 317 315 312 308 306 301 299 297 301 301 301 305 308 304 302 304 299 299 293 288 292 286 283 286 287 288 287 285 284 287 291 290 288 285 287 291 291 292 294 293 293 293
317 317 317 317 313 311 307 303 304 301 295 302 303 303 307 308 303 304 303 296 294 288 288 286 283 290 292 291 289 288 286 285 287 291 289 286 286 286 290 292 292 291 290 290 290
316 316 317 314 311 307 305 305 305 304 294 298 302 303 305 306 301 302 303 297 293 290 289 284 288 294 292 289 288 288 286 285 285 287 286 284 283 284 291 293 292 290 290 289 288
315 315 313 310 307 305 303 309 309 304 285 291 297 301 306 306 300 308 306 299 292 290 289 288 293 291 290 289 289 283 289 288 286 282 277 284 275 282 287 287 288 288 286 286 286
314 313 310 312 304 303 307 308 304 300 273 291 296 304 304 300 295 295 301 297 293 290 290 287 288 287 286 288 290 286 290 287 285 280 279 279 276 280 287 284 285 286 286 285 285
313 311 310 306 304 304 308 306 302 285 276 291 293 292 294 294 293 293 294 294 294 290 289 289 291 289 288 290 290 290 286 285 283 280 274 280 278 277 282 284 285 286 286 285 285
312 311 310 307 302 305 305 300 287 280 292 289 288 291 290 290 291 289 288 286 283 280 280 285 287 290 291 285 288 286 281 274 273 273 273 282 278 281 284 286 285 284 284 284 284
311 310 310 307 308 305 303 293 281 287 288 294 291 290 286 289 289 289 286 283 286 284 281 279 278 286 290 286 284 283 282 276 272 273 274 282 276 279 286 288 288 287 285 284 283
309 307 303 307 307 306 295 284 282 287 292 291 292 286 286 289 288 287 285 284 287 286 281 280 281 288 289 289 288 284 279 284 279 278 274 277 280 285 286 285 286 285 284 282 281
299 300 299 305 306 301 292 287 289 294 295 294 287 290 283 286 286 285 284 289 287 290 289 285 278 286 288 289 287 285 287 277 278 273 271 274 276 276 280 283 284 283 281 281 280
295 294 298 305 303 294 285 287 292 296 296 293 290 290 289 286 286 284 286 289 290 288 288 284 282 281 285 283 281 282 279 281 280 278 272 269 269 277 278 281 280 281 282 280 279
296 286 299 303 288 285 285 290 295 294 297 294 295 293 288 289 287 286 286 290 290 288 283 285 281 276 280 286 287 284 282 282 275 275 276 275 273 284 282 282 282 282 283 283 281
291 289 299 299 284 284 287 290 293 293 293 293 293 294 291 286 283 287 287 290 290 287 284 285 279 273 277 280 285 282 285 286 283 279 275 269 271 283 283 281 281 280 281 280 280
289 283 288 291 288 287 285 287 287 295 293 295 294 294 289 286 289 285 285 289 290 288 294 289 281 277 274 277 281 278 281 282 282 274 276 273 270 281 282 281 281 281 280 278 279
290 284 286 282 284 287 287 287 286 287 294 294 292 292 287 283 286 284 286 284 288 291 286 283 278 276 279 282 282 280 279 280 276 280 276 274 276 277 281 280 281 279 279 278 278
286 285 286 282 287 287 288 286 286 288 289 289 290 293 291 285 286 283 284 282 282 285 283 283 276 273 269 282 281 278 280 280 280 280 277 276 278 281 281 280 279 279 278 277 276
294 293 287 285 285 285 285 286 287 290 292 293 291 290 286 287 289 288 289 288 287 284 281 279 275 271 270 280 281 276 278 278 278 281 281 277 280 280 279 279 278 278 278 276 275

GFSSW_sfc_thetae_129.txt.gz
Theta_e
322 322 321 320 319 318 317 317 316 315 315 315 315 316 316 315 313 307 301 306 309 318 317 299 300 301 299 296 295 295 288 285 287 290 292 297 296 298 299 296 300 303 302 304 308
323 323 322 321 320 318 317 317 315 315 315 315 315 315 315 314 307 305 314 319 317 318 299 302 301 302 294 293 294 291 287 289 294 294 294 296 293 295 296 296 297 298 302 302 306
323 323 323 322 320 319 318 316 315 315 315 315 315 315 314 312 304 303 321 320 319 315 304 306 304 299 291 291 289 288 287 291 294 295 295 293 291 294 293 292 296 296 299 300 302
323 323 322 322 321 320 318 316 316 315 314 314 314 315 314 307 297 304 321 321 320 309 303 300 296 292 289 288 290 286 291 292 293 293 291 291 293 292 294 296 299 298 298 297 298
321 321 322 322 322 320 318 317 316 315 313 313 313 314 305 302 304 309 322 318 306 304 301 299 294 291 288 289 291 288 290 293 294 293 291 292 291 292 294 296 297 297 298 297 300
320 320 320 321 321 320 318 317 316 314 313 313 312 314 299 300 308 307 309 306 304 301 297 296 295 295 291 291 289 292 291 291 292 292 292 291 291 290 295 295 296 296 296 301 301
320 320 320 320 320 320 319 317 316 314 313 312 311 308 298 304 306 305 305 301 301 299 295 297 296 294 294 292 295 293 288 290 291 290 290 292 289 290 295 294 294 296 299 298 297
320 320 318 319 319 318 318 317 316 313 312 312 311 303 297 311 306 307 302 301 302 300 299 299 297 295 293 295 292 289 287 283 291 293 293 291 286 292 294 292 293 295 295 295 294
318 319 318 317 317 317 316 316 314 312 312 312 302 300 298 313 306 305 306 302 300 299 299 302 297 291 292 286 283 284 280 283 288 293 292 290 287 293 294 293 291 294 294 293 291
318 318 318 316 315 315 314 312 310 309 308 306 305 299 303 305 306 301 302 300 297 296 295 293 290 286 285 282 278 280 281 281 282 289 289 286 286 290 292 292 292 291 291 290 289
317 318 318 317 316 312 311 309 305 300 299 302 301 302 304 308 304 300 301 297 297 292 286 290 284 282 284 285 286 285 283 281 284 289 287 286 284 285 291 290 288 288 288 287 287
316 316 317 317 314 312 310 304 305 299 295 301 302 303 306 307 301 304 301 294 292 288 287 284 282 289 290 289 287 286 283 283 286 289 287 283 282 286 288 287 287 286 285 286 286
316 316 316 315 312 310 307 305 305 302 296 298 302 302 304 305 301 302 300 295 291 288 287 283 286 291 289 287 286 285 284 284 284 285 284 282 280 284 288 289 288 287 286 286 285
315 314 313 311 308 306 305 308 309 303 286 290 295 300 304 304 299 307 306 298 292 289 289 287 292 290 288 287 287 283 287 287 284 281 277 282 274 282 285 285 285 285 283 283 283
313 313 310 313 304 304 307 309 306 299 274 290 296 305 305 299 295 296 303 298 290 289 289 286 287 286 285 287 288 284 288 285 284 279 277 277 275 277 284 282 283 283 284 283 283
312 312 311 307 305 303 305 304 302 285 275 288 292 293 297 298 291 292 293 296 296 291 289 288 290 288 288 289 289 289 285 283 281 279 274 278 277 275 280 282 283 284 283 283 283
312 312 310 308 303 304 304 301 287 279 290 288 287 291 292 289 289 288 288 285 283 281 280 284 286 288 290 285 286 284 280 274 273 273 273 280 277 278 282 284 285 283 282 282 282
311 310 310 308 305 306 304 292 281 286 286 293 289 289 288 288 288 287 285 283 285 283 279 278 278 284 288 285 283 281 281 275 272 272 275 280 275 278 285 286 286 285 283 282 281
310 307 304 307 307 304 296 285 283 286 291 290 289 285 284 288 287 286 283 282 285 285 280 278 279 286 287 287 287 282 278 282 278 277 273 276 279 283 285 284 285 284 282 280 279
302 300 300 306 307 302 293 286 288 293 294 292 286 287 282 285 285 284 283 287 286 287 288 284 278 285 286 287 286 284 286 277 278 273 271 274 275 275 279 282 284 281 279 279 278
298 293 298 305 304 295 285 288 290 295 295 292 289 289 288 285 286 283 285 287 289 287 287 285 282 281 284 282 281 281 279 280 280 278 272 272 270 277 279 282 280 280 280 278 277
296 286 299 302 288 286 285 290 294 293 296 293 293 292 289 288 286 284 285 288 289 288 284 285 281 276 280 284 285 283 281 281 275 275 276 275 275 284 280 280 281 280 281 280 278
291 289 299 299 284 284 287 289 292 292 292 291 291 293 292 287 283 286 286 289 289 286 284 285 279 273 277 280 283 280 283 283 282 279 276 270 273 282 281 280 280 279 279 278 278
289 283 289 292 286 286 284 287 288 293 292 293 293 293 289 284 288 284 283 288 289 288 293 288 280 278 276 278 280 278 281 283 280 273 276 275 275 279 280 278 279 279 279 276 276
290 284 285 281 285 287 286 286 286 286 292 293 289 291 287 284 284 283 285 285 287 290 286 283 278 275 279 281 281 280 279 280 276 279 274 277 277 277 281 280 278 279 278 277 276
286 285 284 282 286 285 288 285 284 287 289 288 287 290 289 285 284 282 284 284 284 287 283 282 276 273 269 280 280 277 279 279 278 278 277 275 278 280 281 279 278 278 278 277 276
294 292 286 284 283 285 284 285 285 287 289 291 289 288 288 290 292 290 293 292 289 284 282 279 273 270 270 279 279 273 279 279 278 280 280 276 280 279 278 279 278 278 278 276 276

GFSSW_sfc_thetae_132.txt.gz
Theta_e
322 322 321 320 319 319 318 317 316 316 316 316 317 317 317 316 314 306 298 305 306 319 317 301 301 302 297 295 295 293 287 284 286 289 291 295 295 296 298 295 299 301 300 302 303
323 323 323 322 320 319 318 317 316 316 316 316 316 317 316 315 306 303 314 319 317 319 301 303 300 300 292 291 292 290 286 287 292 292 291 294 290 293 294 294 295 296 300 302 303
323 323 323 323 321 320 319 317 316 317 316 316 316 316 315 313 303 302 321 320 318 314 303 304 301 296 290 289 288 288 286 289 291 292 291 289 289 292 291 290 295 295 297 299 301
323 323 322 322 322 321 319 317 317 317 315 315 316 315 315 306 297 304 320 320 320 307 302 298 294 290 288 286 288 284 289 289 290 291 290 289 291 291 292 295 297 296 296 303 302
321 321 322 323 322 321 319 318 317 316 314 314 314 315 305 304 305 309 321 315 304 303 298 296 293 290 287 287 289 286 288 291 291 291 290 292 290 291 293 295 295 301 301 300 298
320 320 320 321 321 321 319 318 317 316 313 314 313 313 300 302 308 306 306 305 302 300 295 296 293 293 290 289 287 290 289 290 290 291 290 289 290 288 293 294 297 297 295 295 294
319 320 320 320 320 320 319 318 317 315 313 314 313 307 299 307 305 304 306 301 299 298 295 297 295 292 292 289 293 291 287 289 289 288 288 290 287 288 292 296 294 293 292 292 291
316 318 318 319 319 319 318 318 317 314 313 313 313 302 301 311 306 308 303 303 301 299 298 298 297 293 291 292 290 286 285 282 288 291 291 289 285 290 291 294 291 291 291 290 290
317 317 317 316 316 316 316 317 315 313 313 313 302 299 300 314 305 307 305 304 298 298 297 301 295 290 290 285 282 283 279 281 286 291 290 289 286 289 292 294 291 289 289 289 288
317 317 317 316 316 315 315 313 312 311 310 306 304 299 305 306 306 300 302 300 295 296 293 292 288 284 283 282 277 278 279 278 280 287 287 285 286 288 291 290 287 286 286 286 286
316 317 317 317 315 312 311 310 305 301 301 303 302 303 304 307 307 298 300 296 296 293 286 288 284 282 283 285 285 283 281 280 282 287 285 285 284 285 288 287 285 285 285 285 285
316 316 316 316 315 313 312 307 306 298 294 301 303 302 306 306 301 305 300 295 292 287 287 284 282 287 288 287 286 284 282 281 284 288 286 284 282 284 286 285 285 284 283 283 284
315 315 315 315 312 310 309 308 305 303 295 298 301 301 303 305 301 304 298 294 290 287 285 283 286 289 288 286 285 283 282 282 283 284 282 281 279 284 286 286 287 285 284 284 283
313 314 312 311 309 307 306 309 309 303 286 289 294 299 303 304 297 307 301 297 291 289 287 285 290 288 286 285 285 280 287 286 284 280 276 280 274 279 284 284 284 284 282 282 282
310 313 311 313 303 302 306 310 306 295 274 289 294 303 303 298 294 297 303 298 290 289 288 286 286 285 284 286 288 285 287 284 282 278 276 276 274 276 283 281 282 282 283 281 282
310 312 311 307 303 301 306 304 300 283 275 286 294 294 296 297 290 293 295 299 296 290 288 288 289 288 288 289 288 288 284 282 280 277 273 277 276 275 279 282 282 283 282 282 281
310 312 311 309 302 303 304 301 287 279 289 285 286 293 292 291 287 287 288 285 284 283 282 285 287 288 290 285 286 284 280 274 273 272 273 279 276 278 282 284 285 284 281 281 280
310 311 310 307 304 305 304 293 279 285 285 291 288 288 288 288 286 285 285 282 284 284 280 279 278 284 287 285 283 281 280 275 271 271 274 278 275 278 284 285 285 284 282 281 279
310 307 305 307 305 305 298 284 281 285 290 288 287 283 284 286 287 284 283 283 286 285 281 278 279 285 287 287 286 282 278 281 278 277 273 276 278 282 283 283 283 282 282 279 278
301 301 300 307 307 302 293 287 287 291 292 290 284 285 281 284 284 284 283 286 285 287 287 284 279 284 285 286 285 283 285 276 277 272 271 275 275 277 279 281 283 281 279 278 277
298 293 299 306 305 295 286 288 289 293 294 290 287 287 286 284 284 282 284 287 288 286 286 284 282 281 283 282 280 280 279 280 279 277 272 271 272 277 277 282 283 280 280 277 275
296 285 298 304 289 287 286 290 294 292 295 293 292 291 289 287 285 284 284 286 288 287 283 285 282 277 280 283 284 282 280 280 273 275 276 275 275 282 279 279 281 279 279 278 277
291 289 299 299 284 285 288 290 292 291 291 291 290 291 291 287 284 286 286 288 288 285 284 285 280 274 277 279 282 279 281 281 281 280 275 270 274 282 281 280 280 278 279 278 277
289 284 289 291 289 287 286 287 287 292 292 293 292 293 288 285 287 284 283 287 288 288 292 289 281 278 276 278 280 278 281 282 281 274 277 276 278 279 279 279 279 278 277 276 275
290 285 285 282 286 287 287 286 286 286 291 292 289 290 288 284 283 282 283 283 286 289 285 285 280 276 279 281 280 280 279 280 277 280 275 277 277 282 280 280 279 278 277 277 275
286 286 283 282 286 285 287 284 284 286 288 287 286 290 288 285 285 282 284 282 282 284 283 283 277 274 271 280 280 277 278 279 279 279 278 277 277 282 282 280 278 278 277 276 275
291 290 287 284 283 284 284 285 285 287 288 290 288 288 286 288 291 291 290 289 288 284 283 282 278 276 273 278 279 273 275 277 277 279 279 275 280 280 278 280 278 277 278 277 276